Torna al catalogo

ATLAS 5 CENTAUR DEB

AttivoHEO
NORAD 46846·DEBRIS·🇺🇸 United States

Lanciato Oct 17, 2018 da Cape Canaveral Space Force Station

Loading…

Prossimi Passaggi (prossime 24 ore)

TLE

AggiornatoSource: Space-Track

Epoca: Sep 13, 2026, 22:25 UTC

1 46846U 18079DB  26256.93428631 -.00000156  00000-0  00000-0 0  9993
2 46846  12.5026  55.8430 4564519 278.4773  34.0347  1.71814452 36826

Traccia ATLAS 5 CENTAUR DEB in tempo reale con AllMySat

Download on the App Store